Location: Unspecified
(0.0000°N, 0.0000°E)
Time: 07:57:17
(UTC+00:00)

Vanguard 2 Rocket - Pass Details

Date: 07 October 2022
Orbit: 555 x 3321 km, 32.9° (Epoch: 06 December)

Event Time Altitude Azimuth Distance (km) Brightness Sun altitude
Rises 18:16:16 0° 241° (WSW) 6,583 12.7 -7.1°
Reaches altitude 10° 18:20:17 10° 243° (WSW) 5,810 12.3 -8.1°
Maximum altitude 18:39:38 69° 323° (NW) 3,455 9.9 -12.9°
Drops below altitude 10° 18:58:06 10° 45° (NE) 5,549 10.4 -17.5°
Enters shadow 18:59:20 - 46° (NE) 5,785 10.5 -17.8°
Sets 19:01:51 0° 48° (NE) 6,285 - -18.4°
